Starlink 11350

operational
NORAD ID: 61540 Int'l Des: 2024-184 Owner: SPXS Country: US Constellation: starlink
LEOCIRCULAR

关于 Starlink 11350

正在加载描述...

实时位置

正在加载3D地球...

即将过境

高度历史

Altitude vs Time

uPlot chart will show altitude changes over time

两行轨道根数

1 61540U 24184J 26035.39909412 .00000259 00000-0 69982-5 0 9993
2 61540 53.1595 40.0090 0001402 83.6600 276.4578 15.69701316 75199
Epoch: Feb 4, 2026 • Age: 25 hours

当前状态

高度 374.2 km
速度 7.68 km/s
星下点 -41.16°S, 45.55°W
发射日期 Oct 15, 2024
运行时间 1.3 years
类型 internet

技术详情

分类 Payload
质量 960.00 kg
干质量 910.00 kg
总质量 960.00 kg
长度 0.30 m
直径 4.10 m
跨度 29.00 m
形状 Box + pan
制造商 SPXS
平台类型 Starlink V2MD
阶段状态 In Orbit
所有者/国家 SPXS/US

大型星座

Loading constellations...